Hickory, NC

12:48 AM EDT on August 17, 2017 (GMT -0400)
Hickory Regional

Weather History for KHKY - September, 2012

Change the Weather History Date:

Thursday, September 6, 2012

  Actual Average Record
Temperature  
Mean Temperature 78 °F -  
Max Temperature 86 °F 81 °F 99 °F (1954)
Min Temperature 71 °F 62 °F 53 °F (1997)
Cooling Degree Days 14    
Growing Degree Days 28 (Base 50)    
Moisture  
Dew Point 69 °F    
Average Humidity 79    
Maximum Humidity 93    
Minimum Humidity 51    
Precipitation  
Precipitation 0.01 in - - ()
Sea Level Pressure  
Sea Level Pressure 29.91 in    
Wind  
Wind Speed 3 mph (West)    
Max Wind Speed 14 mph    
Max Gust Speed -    
Visibility 9 miles    
Events Rain , Thunderstorm    
Averages and records for this station are not official NWS values.
T = Trace of Precipitation, MM = Missing Value Source: NWS Daily Summary

Daily Weather History Graph

Daily Weather History Graph

Search for Another Location

Airport or City:

Trip Planner

Search our weather history database for the weather conditions in past years. The results will help you decide how hot, cold, wet, or windy it might be!

Date:

Astronomy

Sep. 06, 2012 Rise Set
Actual Time 7:01 AM EDT 7:45 PM EDT
Civil Twilight 6:35 AM EDT 8:10 PM EDT
Nautical Twilight 6:05 AM EDT 8:41 PM EDT
Astronomical Twilight 5:33 AM EDT 9:12 PM EDT
Moon 11:08 PM EDT (9/6) 12:46 PM EDT (9/6)
Length of Visible Light 13h 35m
Length of Day
12h 43m
Waning Gibbous, 67% of the Moon is Illuminated
Sep 6
Waning Gibbous
Sep 8
Last Quarter
Sep 15
New
Sep 22
First Quarter
Sep 29
Full

Hourly Weather History & Observations

Time (EDT) Temp. Heat Index Dew Point Humidity Pressure Visibility Wind Dir Wind Speed Gust Speed Precip Events Conditions
12:53 AM 73.9 °F - 69.1 °F 85% 29.87 in 10.0 mi SSW 8.1 mph - N/A   Clear
1:53 AM 73.9 °F - 69.1 °F 85% 29.86 in 10.0 mi South 8.1 mph - N/A   Mostly Cloudy
2:53 AM 73.0 °F - 69.1 °F 87% 29.85 in 9.0 mi South 4.6 mph - N/A   Partly Cloudy
3:53 AM 72.0 °F - 69.1 °F 91% 29.85 in 7.0 mi Calm Calm - N/A   Scattered Clouds
4:53 AM 72.0 °F - 69.1 °F 91% 29.85 in 7.0 mi SSW 3.5 mph - N/A   Scattered Clouds
5:53 AM 72.0 °F - 69.1 °F 91% 29.85 in 6.0 mi Calm Calm - N/A   Mostly Cloudy
6:53 AM 71.1 °F - 69.1 °F 93% 29.87 in 4.0 mi Calm Calm - 0.00 in   Mostly Cloudy
7:53 AM 72.0 °F - 70.0 °F 93% 29.90 in 4.0 mi Calm Calm - N/A   Mostly Cloudy
8:19 AM 73.4 °F - 69.8 °F 88% 29.97 in 6.0 mi Calm Calm - N/A   Overcast
8:28 AM 73.4 °F - 69.8 °F 88% 29.96 in 6.0 mi Calm Calm - N/A   Overcast
8:53 AM 75.0 °F - 71.1 °F 87% 29.90 in 8.0 mi Variable 3.5 mph - N/A   Mostly Cloudy
9:33 AM 75.2 °F - 71.6 °F 89% 29.97 in 9.0 mi Calm Calm - N/A   Mostly Cloudy
9:40 AM 75.2 °F - 69.8 °F 83% 29.97 in 9.0 mi Calm Calm - N/A   Overcast
9:48 AM 75.2 °F - 69.8 °F 83% 29.97 in 9.0 mi Calm Calm - N/A   Mostly Cloudy
9:49 AM 75.9 °F - 71.1 °F 85% 29.91 in 9.0 mi Calm Calm - N/A   Mostly Cloudy
10:53 AM 78.1 °F - 70.0 °F 76% 29.92 in 10.0 mi Calm Calm - N/A   Partly Cloudy
11:53 AM 79.0 °F - 71.1 °F 77% 29.93 in 10.0 mi Calm Calm - N/A   Scattered Clouds
12:53 PM 79.0 °F - 69.1 °F 72% 29.92 in 10.0 mi West 3.5 mph - 0.00 in   Partly Cloudy
1:53 PM 81.0 °F 84.1 °F 69.1 °F 67% 29.91 in 10.0 mi North 5.8 mph - N/A   Clear
2:53 PM 84.0 °F 87.8 °F 69.1 °F 61% 29.89 in 10.0 mi Variable 3.5 mph - N/A   Partly Cloudy
3:53 PM 84.9 °F 87.6 °F 66.9 °F 55% 29.87 in 10.0 mi Variable 6.9 mph - N/A   Partly Cloudy
4:53 PM 84.9 °F 86.6 °F 64.9 °F 51% 29.86 in 10.0 mi WNW 5.8 mph - N/A   Partly Cloudy
5:53 PM 86.0 °F 88.2 °F 66.0 °F 51% 29.85 in 10.0 mi Variable 3.5 mph - N/A   Mostly Cloudy
6:53 PM 84.0 °F 86.3 °F 66.0 °F 55% 29.86 in 10.0 mi Calm Calm - N/A   Partly Cloudy
7:53 PM 80.1 °F 83.2 °F 70.0 °F 71% 29.88 in 10.0 mi Calm Calm - N/A   Overcast
8:53 PM 79.0 °F - 68.0 °F 69% 29.90 in 10.0 mi ENE 13.8 mph - N/A   Overcast
9:16 PM 75.2 °F - 68.0 °F 78% 29.98 in 10.0 mi East 3.5 mph - 0.01 in Rain , Thunderstorm Light Thunderstorms and Rain
9:31 PM 73.4 °F - 68.0 °F 83% 29.98 in 10.0 mi North 3.5 mph - 0.01 in Thunderstorm Scattered Clouds
9:53 PM 73.0 °F - 68.0 °F 84% 29.93 in 10.0 mi Calm Calm - 0.01 in Thunderstorm Partly Cloudy
10:08 PM 73.4 °F - 68.0 °F 83% 29.99 in 10.0 mi Calm Calm - N/A   Mostly Cloudy
10:53 PM 72.0 °F - 69.1 °F 91% 29.93 in 10.0 mi Calm Calm - N/A   Mostly Cloudy
11:53 PM 71.1 °F - 68.0 °F 90% 29.93 in 10.0 mi North 4.6 mph - N/A   Partly Cloudy